TimeEST,TemperatureF,Dew PointF,Humidity,Sea Level PressureIn,VisibilityMPH,Wind Direction,Wind SpeedMPH,Gust SpeedMPH,PrecipitationIn,Events,Conditions,WindDirDegrees,DateUTC
12:53 AM,28.0,12.9,53,30.13,10.0,SSE,5.8,-,N/A,,Clear,160,2013-02-18 05:53:00
1:53 AM,28.9,12.9,51,30.12,10.0,SSE,9.2,-,N/A,,Clear,150,2013-02-18 06:53:00
2:53 AM,28.9,14.0,54,30.09,10.0,SSE,8.1,-,N/A,,Clear,150,2013-02-18 07:53:00
3:53 AM,30.0,15.1,54,30.06,10.0,SSE,9.2,-,N/A,,Clear,160,2013-02-18 08:53:00
4:53 AM,30.0,15.1,54,30.05,10.0,SSE,11.5,-,N/A,,Clear,150,2013-02-18 09:53:00
5:53 AM,30.0,16.0,56,30.04,10.0,SSE,10.4,-,N/A,,Clear,150,2013-02-18 10:53:00
7:53 AM,30.9,17.1,57,30.01,10.0,SSE,10.4,-,N/A,,Clear,150,2013-02-18 12:53:00
9:53 AM,41.0,25.0,53,29.99,10.0,South,11.5,19.6,N/A,,Clear,190,2013-02-18 14:53:00
10:53 AM,48.9,34.0,56,29.96,10.0,SSW,13.8,20.7,N/A,,Clear,210,2013-02-18 15:53:00
11:53 AM,53.1,37.0,55,29.94,10.0,SSW,21.9,31.1,N/A,,Clear,210,2013-02-18 16:53:00
12:53 PM,55.0,37.9,53,29.92,10.0,SSW,18.4,29.9,N/A,,Clear,210,2013-02-18 17:53:00
1:53 PM,57.0,39.0,51,29.88,10.0,South,19.6,31.1,N/A,,Clear,190,2013-02-18 18:53:00
2:53 PM,57.0,35.1,44,29.83,10.0,South,20.7,29.9,N/A,,Mostly Cloudy,190,2013-02-18 19:53:00
3:53 PM,57.0,30.9,37,29.80,10.0,South,16.1,21.9,N/A,,Overcast,190,2013-02-18 20:53:00
4:53 PM,55.9,30.0,37,29.79,10.0,SSW,13.8,35.7,N/A,,Overcast,200,2013-02-18 21:53:00
5:53 PM,52.0,35.1,53,29.79,10.0,SW,29.9,39.1,0.00,Rain,Light Rain,220,2013-02-18 22:53:00
6:53 PM,50.0,37.9,63,29.76,10.0,South,13.8,32.2,0.06,Rain,Light Rain,190,2013-02-18 23:53:00
8:53 PM,46.0,41.0,83,29.70,6.0,South,17.3,26.5,0.12,Rain,Rain,170,2013-02-19 01:53:00
9:53 PM,46.0,42.1,86,29.67,10.0,South,12.7,25.3,0.07,Rain,Light Rain,170,2013-02-19 02:53:00
10:14 PM,46.4,42.8,87,29.66,5.0,South,20.7,32.2,0.04,Rain,Rain,170,2013-02-19 03:14:00
10:53 PM,46.0,41.0,83,29.64,7.0,South,21.9,32.2,0.11,Rain,Light Rain,180,2013-02-19 03:53:00
11:53 PM,46.9,42.1,83,29.62,10.0,South,27.6,38.0,0.01,Rain,Light Rain,190,2013-02-19 04:53:00